Location: Unspecified
(52.4292°N, 19.3359°E)
Time: 02:02:41
(UTC+02:00)

Vanguard 1 Rocket - Pass Details

Date: 20 May 2024
Orbit: 649 x 4221 km, 34.3° (Epoch: 13 June)

Event Time Altitude Azimuth Distance (km) Brightness Sun altitude
Rises 11:28:42 0° 236° (WSW) 7,473 12.1 54.9°
Reaches altitude 10° 11:35:19 10° 228° (SW) 5,860 11.8 55.4°
Maximum altitude 11:47:41 28° 178° (S) 3,227 11.4 56.2°
Drops below altitude 10° 11:55:14 10° 123° (ESE) 3,494 11.0 56.6°
Sets 11:58:01 0° 111° (ESE) 4,109 11.0 56.7°
